TimeCST,TemperatureF,Dew PointF,Humidity,Sea Level PressureIn,VisibilityMPH,Wind Direction,Wind SpeedMPH,Gust SpeedMPH,PrecipitationIn,Events,Conditions,WindDirDegrees,DateUTC
12:53 AM,32.0,24.1,73,30.22,10.0,Calm,Calm,-,N/A,,Clear,0,2013-01-07 06:53:00
1:53 AM,35.1,25.0,67,30.18,10.0,ESE,6.9,-,N/A,,Clear,120,2013-01-07 07:53:00
2:53 AM,33.1,25.0,72,30.17,10.0,ESE,4.6,-,N/A,,Clear,110,2013-01-07 08:53:00
3:53 AM,34.0,26.1,73,30.14,10.0,ESE,4.6,-,N/A,,Clear,110,2013-01-07 09:53:00
4:53 AM,35.1,25.0,67,30.10,10.0,ESE,12.7,-,N/A,,Clear,120,2013-01-07 10:53:00
5:53 AM,34.0,24.1,67,30.11,10.0,ESE,10.4,-,N/A,,Clear,110,2013-01-07 11:53:00
6:53 AM,34.0,24.1,67,30.11,10.0,ESE,10.4,-,N/A,,Clear,110,2013-01-07 12:53:00
7:53 AM,34.0,24.1,67,30.12,10.0,ESE,9.2,-,N/A,,Clear,120,2013-01-07 13:53:00
8:53 AM,36.0,26.1,67,30.12,10.0,SE,15.0,-,N/A,,Clear,130,2013-01-07 14:53:00
9:53 AM,39.0,27.0,62,30.12,10.0,SE,17.3,23.0,N/A,,Clear,140,2013-01-07 15:53:00
10:53 AM,44.1,28.9,55,30.10,10.0,SSE,17.3,24.2,N/A,,Clear,150,2013-01-07 16:53:00
11:53 AM,46.0,28.9,51,30.09,10.0,SE,12.7,20.7,N/A,,Clear,140,2013-01-07 17:53:00
12:53 PM,48.2,28.4,46,30.03,10.0,SE,16.1,-,N/A,,Clear,130,2013-01-07 18:53:00
1:53 PM,48.0,28.0,46,29.97,10.0,SE,11.5,-,N/A,,Clear,140,2013-01-07 19:53:00
2:53 PM,51.1,30.0,44,29.96,10.0,ESE,11.5,-,N/A,,Clear,110,2013-01-07 20:53:00
3:53 PM,52.0,28.9,41,29.94,10.0,ESE,13.8,18.4,N/A,,Clear,120,2013-01-07 21:53:00
4:53 PM,51.8,30.2,44,29.96,10.0,SE,10.4,-,N/A,,Clear,140,2013-01-07 22:53:00
5:53 PM,48.9,30.9,50,29.94,10.0,ESE,10.4,-,N/A,,Clear,120,2013-01-07 23:53:00
6:53 PM,44.1,30.9,60,29.96,10.0,SE,8.1,-,N/A,,Clear,130,2013-01-08 00:53:00
7:53 PM,39.9,30.0,68,29.97,10.0,East,4.6,-,N/A,,Clear,80,2013-01-08 01:53:00
8:53 PM,37.9,28.9,70,29.98,10.0,NE,4.6,-,N/A,,Clear,50,2013-01-08 02:53:00
9:53 PM,36.0,28.9,76,29.96,10.0,East,5.8,-,N/A,,Clear,80,2013-01-08 03:53:00
10:53 PM,34.0,28.0,79,29.95,10.0,Calm,Calm,-,N/A,,Clear,0,2013-01-08 04:53:00
11:53 PM,30.9,27.0,85,29.94,10.0,NE,4.6,-,N/A,,Clear,40,2013-01-08 05:53:00